Location: Newark
(17.9939°S, 31.0481°E)
Time: 03:37:54
(UTC+00:00)

Transit 2A - Visible Passes

Search period start: 20 November 2019 00:00
Search period end: 30 November 2019 00:00
Orbit: 601 x 957 km, 66.7° (Epoch: 18 November)

Date Brightness Start Highest point End Pass type
(mag) Time Alt. Az. Time Alt. Az. Time Alt. Az.
26 Nov 9.1 20:32:11 11° SSW 20:32:11 11° SSW 20:32:29 10° SSW visible
27 Nov 8.6 19:57:39 17° SSW 19:57:39 17° SSW 19:59:23 10° S visible
28 Nov 7.9 19:22:46 27° SSW 19:22:46 27° SSW 19:25:49 10° S visible
29 Nov 6.7 18:47:18 53° SSW 18:47:18 53° SSW 18:51:59 10° SSE visible
